User: anonymous   Login
Location: Irma
(52.9170°N, 111.2330°W)
Time: 20:05:16
(UTC-06:00)
Language:

Cosmos 1633 Rocket - Orbit

View from above orbital plane
View from above orbital plane
View from above satellite
View from above satellite

Ground track
Ground track

The orbit data is extracted from the following two-line orbital elements,

1 15593U 85020B   17289.58968236 +.00000107 +00000-0 +99320-5 0  9998
2 15593 082.5371 149.0638 0011792 006.7190 023.0315 14.84294183741218
Epoch (UTC): 16 October 2017 14:09:08
Eccentricity: 0.0011792
inclination: 82.5371°
perigee height: 607 km
apogee height: 624 km
right ascension of ascending node: 149.0638°
argument of perigee: 6.7190°
revolutions per day: 14.84294183
mean anomaly at epoch: 23.0315°
orbit number at epoch: 74121

The dashed part of the orbit path shows where the satellite is in the earth's shadow,  

DLR